www.pogodaiklimat.ru

Погода и климат >> Архив погоды >> Иран >> Абадан


ПОГОДА в Абадане

  • Прогноз погоды в Абадане
  • Монитор погоды в Абадане

АРХИВ ПОГОДЫ в Абадане

Время (UTC), дата Ветер
(напр.,м/с)
 
Видим.   Явления Облачность Т
(С)
Тd
(С)
f
(%)
Тe
(С)
Тes
(С)
Комфортность P
(гПа)
Po
(гПа)
Тmin
(С)
Tmax
(С)
R
(мм)
R24
(мм)
S
(см)
18 15.03 В 2 10 км ясно +18.8 +7.4 47 +20 +20 1015.8 1015.0
21 15.03 ЮВ 1 10 км ясно +16.9 +9.0 60 +18 +18 1016.4 1015.6
00 16.03 ЮЗ 1 10 км ясно +13.5 +9.2 75 +14 +14 1016.1 1015.3
03 16.03 штиль 0 3000 м пыль ясно +13.0 +8.9 76 +13 +13 1016.5 1015.7 +13.0
06 16.03 штиль 0 3000 м пыль ясно +21.9 +8.8 43 +23 +35 комфорт 1017.1 1016.3
09 16.03 ЮВ 3 6000 м пыль ясно +23.9 +4.6 29 +24 +37 комфорт 1016.3 1015.5
12 16.03 В 4 8000 м мгла ясно +25.0 +5.6 29 +25 +29 комфорт 1013.2 1012.4
15 16.03 ЮВ 3 7000 м мгла ясно +22.0 +11.2 50 +24 +24 комфорт 1010.5 1009.6 +26.0
18 16.03 ЮВ 3 10 км ясно +19.1 +16.0 82 +21 +21 комфорт 1010.9 1010.1
21 16.03 ЮВ 4 10 км 8/0
[Ac trans]
+19.0 +16.2 84 +20 +20 1008.7 1007.9
00 17.03 В 4 7000 м дымка {гроза} 9/6 900 м
[Cb calv Ac As]
+19.6 +16.9 84 +22 +22 комфорт 1006.2 1005.4 1
03 17.03 Ю 7 7000 м дымка 9/6 900 м
[Cb calv Ac As]
+20.2 +17.6 85 +23 +23 комфорт 1006.1 1005.3 +18.4
06 17.03 СЗ 9 8000 м {ливн. осадки} 1/0
[Ac trans]
+20.0 +9.4 50 +21 +21 комфорт 1007.8 1007.0 0.0 468
09 17.03 З 14 7000 м мгла ясно +22.5 +5.1 32 +23 +23 комфорт 1009.5 1008.7
12 17.03 З 10 7000 м мгла 4/4 1200 м
[Sc]
+23.0 +3.1 27 +23 +23 комфорт 1009.5 1008.7
15 17.03 СЗ 8 10 км 3/3 1200 м
[Sc]
+21.1 +5.5 36 +22 +22 комфорт 1010.7 1009.9 +23.8 666
18 17.03 З 2 10 км ясно +18.3 +6.9 47 +19 +19 1013.4 1012.6
21 17.03 ЮЗ 2 10 км ясно +14.6 +7.8 64 +14 +14 1014.1 1013.3
00 18.03 ЮЗ 1 10 км ясно +13.2 +7.0 66 +14 +14 1013.8 1013.0
03 18.03 З 2 10 км ясно +12.3 +6.2 66 +12 +12 1015.3 1014.4 +11.9
06 18.03 З 4 7000 м мгла 3/0
[Ac trans]
+17.9 +5.8 45 +18 +23 1017.5 1016.7
09 18.03 СЗ 8 5000 м пыль ясно +21.9 +4.8 33 +22 +25 комфорт 1017.8 1017.0
12 18.03 СЗ 7 10 км 3/3 750 м
[Cu med, cong]
+22.5 -1.2 21 +22 +23 комфорт 1017.4 1016.6
15 18.03 СЗ 4 10 км ясно +20.5 -1.6 23 +21 +21 комфорт 1018.2 1017.4 +23.1
18 18.03 СВ 1 8000 м мгла ясно +17.2 +3.3 39 +18 +18 1019.6 1018.8
21 18.03 З 1 8000 м мгла ясно +12.6 +4.9 59 +13 +13 1019.1 1018.3
00 19.03 З 2 10 км ясно +12.2 +5.0 61 +11 +11 1018.6 1017.8
03 19.03 СЗ 1 6000 м мгла ясно +10.6 +5.4 70 +10 +11 1018.9 1018.0 +10.0
06 19.03 СЗ 2 8000 м мгла ясно +18.6 +4.1 38 +19 +29 1020.0 1019.1
09 19.03 З 5 10 км ясно +21.9 -3.7 18 +21 +30 комфорт 1018.7 1017.8 666
12 19.03 СЗ 7 10 км ясно +24.0 -5.0 14 +22 +24 комфорт 1016.3 1015.5
15 19.03 С 4 10 км ясно +21.7 -0.7 22 +21 +21 комфорт 1016.5 1015.7 +24.2 666
18 19.03 СЗ 1 10 км ясно +18.2 +4.9 41 +19 +19 1017.4 1016.6
21 19.03 С 1 10 км ясно +15.4 +7.7 60 +16 +16 1016.7 1015.9
00 20.03 СВ 2 10 км ясно +13.3 +6.4 63 +13 +13 1015.6 1014.8
03 20.03 СВ 2 10 км ясно +12.6 +5.8 63 +12 +12 1015.3 1014.4 +11.6 666
06 20.03 ЮЗ 2 10 км ясно +20.6 +4.3 34 +22 +31 комфорт 1017.0 1016.2
09 20.03 С 3 10 км 1/1 1200 м
[Cu hum]
+22.4 +3.9 30 +22 +35 комфорт 1016.5 1015.6
12 20.03 С 5 10 км 6/6 1050 м
[Cb calv]
+24.4 +0.3 20 +23 +25 комфорт 1012.8 1012.0
15 20.03 СВ 3 10 км 6/3 1200 м
[Sc Ac trans]
+23.7 +2.7 25 +23 +23 комфорт 1013.3 1012.5 +25.4
18 20.03 С 2 10 км ясно +20.6 +6.0 39 +22 +22 комфорт 1014.9 1014.1
21 20.03 СВ 2 10 км ясно +17.0 +9.8 63 +17 +17 1015.1 1014.3
00 21.03 С 2 10 км ясно +15.0 +9.1 68 +15 +15 1014.6 1013.8
03 21.03 С 2 10 км ясно +14.6 +7.6 63 +14 +14 1014.7 1013.9 +14.4
06 21.03 С 2 10 км 3/0
[Ci fib]
+21.0 +4.5 34 +22 +31 комфорт 1016.3 1015.4
09 21.03 СВ 2 10 км ясно +25.5 +1.9 21 +24 +41 комфорт 1015.8 1014.8 666
12 21.03 СВ 2 10 км 8/0
[Cs]
+26.5 +2.8 22 +25 +32 комфорт 1013.6 1012.6
15 21.03 С 3 10 км 8/0
[Ci fib]
+25.1 +2.3 23 +24 +24 комфорт 1013.8 1013.0 +27.3 666
18 21.03 С 3 10 км ясно +21.4 +6.4 38 +22 +22 комфорт 1014.8 1014.0
21 21.03 СВ 1 10 км ясно +18.7 +7.4 48 +20 +20 1015.3 1014.5
00 22.03 С 2 10 км ясно +16.6 +7.7 56 +17 +17 1014.6 1013.8
03 22.03 С 1 8000 м мгла ясно +14.6 +7.3 62 +15 +15 1015.5 1014.7 +14.6
06 22.03 С 3 8000 м мгла ясно +21.3 +6.8 39 +22 +30 комфорт 1017.0 1016.1
09 22.03 СВ 2 10 км ясно +26.3 +2.2 21 +25 +42 комфорт 1016.3 1015.5
12 22.03 С 3 10 км ясно +27.8 +1.2 18 +26 +32 жарко 1013.9 1013.0
15 22.03 С 2 10 км 1/1 1200 м
[Cu hum]
+26.0 +0.2 18 +24 +24 комфорт 1013.4 1012.6 +28.4

 

Местоположение метеостанции Абадан (Иран): широта 30.37 долгота 48.25 высота над уровнем моря 6 м.

В архиве по умолчанию представлена погода в Абадане за последнюю неделю. Архивные данные за месяц целиком и за предыдущие месяцы, начиная с января 2011 года, Вы можете получить, выбрав интересующий диапазон дат из раскрывающегося списка и нажав кнопку "Ввод!".


*Определитесь, кто Вы:
робот инопланетянин человек

Внимание! Время в таблицах - всемирное. Для получения местного времени необходимо прибавить поправку, которая равна 3.5 ч.

Смотрите также архив погоды в соседних городах и на ближайших метеорологических станциях:

Погода в Басре аэропорт (Ирак) (48 км)
Погода в Эль-Фао (Ирак) (50 км)
Погода в Басре (Ирак) (50 км)
Погода в Абдали (Кувейт) (62 км)
Погода на Бубияне (Кувейт) (68 км)
Погода на Метеостанции Sabriyah (Кувейт) (79 км)
Погода Остров Файлака (Кувейт) (100 км)
Погода на Метеостанции Mintribah (Кувейт) (104 км)
Погода на Метеостанции Jal Aliyah (Кувейт) (106 км)
Погода в Ахвазе (Иран) (114 км)

Пояснения к столбцам:

Ветер - указаны скорость ветра в м/с - средняя за 10 мин, порывы в срок и между сроками (в фигурных скобках) и направление, откуда дует ветер: С - северный, СВ - северо-восточный, В - восточный, ЮВ - юго-восточный, Ю - южный, ЮЗ - юго-западный, З - западный, СЗ - северо-западный.
Видимость - горизонтальная дальность видимости в метрах или километрах. При видимости от 1 до 10 км при отсутствии осадков обычно наблюдается дымка, при ухудшении видимости до 1 км и менее - туман. В сухую погоду видимость может ухудшаться дымом, пылью или мглою.
Явления - указаны атмосферные явления, наблюдавшиеся в срок или в последний час перед сроком; фигурными скобками обозначены явления, наблюдавшиеся между сроками (за 1-3 часа до срока); квадратными скобками обозначены град или гололедные отложения с указанием их диаметра в мм.
Облачность - указаны через наклонную черту общая и нижняя облачность в баллах и высота нижней границы облаков в метрах; квадратными скобками обозначены формы облаков: Ci - перистые, Cs - перисто-слоистые, Cc - перисто-кучевые, Ac - высококучевые, As - высокослоистые, Sc - слоисто-кучевые, Ns - слоисто-дождевые, Cu - кучевые, Cb - кучево-дождевые. Подробнее классификацию облаков см. в Атласе облаков (PDF).
T - Температура воздуха - температура, измеренная на высоте 2 м над землей.
Td - Температура точки росы - температура, при понижении до которой содержащийся в воздухе водяной пар достигнет насыщения.
f - Относительная влажность воздуха - влажноcть воздуха, измеренная на высоте 2 м над землей.
Te - Эффективная температура - температура, которую ощущает одетый по сезону человек в тени. Характеристика душности погоды. При расчете учитывается влияние влажности воздуха и скорости ветра на теплоощущения человека.
Tes - Эффективная температура на солнце - температура, которую ощущает человек, с поправкой на солнечный нагрев. Характеристика знойности погоды. Зависит от высоты солнца над горизонтом, облачности и скорости ветра. Ночью, в пасмурную погоду, а также при ветре 12 м/с и более поправка равна нулю.
P - Атмосферное давление - приведенное к уровню моря атмосферное давление.
Po - Атмосферное давление - измеренное на уровне метеостанции атмосферное давление.
Tmin - Минимальная температура - минимум температуры воздуха на высоте 2 м над землей.
Tmax - Максимальная температура - максимум температуры воздуха на высоте 2 м над землей.
R - Количество осадков - Количество выпавших осадков за период времени, мм. При наведении курсора мыши на число - период времени, за который выпало указанное количество осадков.
R24 - Количество осадков - Количество выпавших осадков за 24 часа, мм.
S - Снежный покров - Высота снежного покрова, см. При наведении курсора мыши на число - состояние снежного покрова и степень покрытия местности в баллах.